Ogallala, NE

6:55 AM MDT on May 24, 2018 (GMT -0600)
Searle

Weather History for KOGA - January, 2014

Change the Weather History Date:

Friday, January 24, 2014

  Actual Average Record
Temperature  
Mean Temperature 34 °F -  
Max Temperature 57 °F 38 °F 68 °F (1981)
Min Temperature 12 °F 16 °F -16 °F (1963)
Degree Days  
Heating Degree Days 30    
Moisture  
Dew Point 14 °F    
Average Humidity 43    
Maximum Humidity 75    
Minimum Humidity 20    
Precipitation  
Precipitation 0.00 in - - ()
Sea Level Pressure  
Sea Level Pressure 30.06 in    
Wind  
Wind Speed 17 mph (WNW)    
Max Wind Speed 31 mph    
Max Gust Speed 40 mph    
Visibility 10 miles    
Events      
Averages and records for this station are not official NWS values.
T = Trace of Precipitation, MM = Missing Value Source: NWS Daily Summary

Daily Weather History Graph

Daily Weather History Graph

Search for Another Location

Airport or City:

Astronomy

Jan. 24, 2014 Rise Set
Actual Time 7:04 AM MST 4:54 PM MST
Civil Twilight 6:35 AM MST 5:23 PM MST
Nautical Twilight 6:01 AM MST 5:57 PM MST
Astronomical Twilight 5:29 AM MST 6:29 PM MST
Moon 12:33 AM MST 11:14 AM MST
Length of Visible Light 10h 48m
Length of Day
9h 49m
Last Quarter, 44% of the Moon is Illuminated
Jan 24
Last Quarter
Jan 30
New
Feb 6
First Quarter
Feb 14
Full
Feb 22
Last Quarter

Hourly Weather History & Observations

Time (MST) Temp. Windchill Dew Point Humidity Pressure Visibility Wind Dir Wind Speed Gust Speed Precip Events Conditions
12:15 AM 13.1 °F -5.1 °F 6.4 °F 75% 30.25 in 10.0 mi West 20.7 mph - N/A   Clear
12:35 AM 13.5 °F -3.7 °F 6.4 °F 74% 30.24 in 10.0 mi West 18.4 mph - N/A   Clear
12:55 AM 12.7 °F -3.0 °F 5.9 °F 74% 30.23 in 10.0 mi West 15.0 mph - N/A   Clear
1:15 AM 13.1 °F -5.1 °F 5.9 °F 73% 30.22 in 10.0 mi WSW 20.7 mph - N/A   Clear
1:35 AM 13.5 °F -2.1 °F 5.9 °F 72% 30.23 in 10.0 mi West 15.0 mph 21.9 mph N/A   Clear
1:55 AM 12.9 °F -0.9 °F 5.5 °F 72% 30.21 in 10.0 mi West 11.5 mph - N/A   Clear
2:15 AM 13.3 °F 1.1 °F 5.9 °F 72% 30.21 in 10.0 mi West 9.2 mph - N/A   Clear
2:35 AM 14.0 °F 1.2 °F 6.3 °F 71% 30.20 in 10.0 mi West 10.4 mph - N/A   Clear
2:55 AM 14.0 °F 1.2 °F 6.3 °F 71% 30.19 in 10.0 mi West 10.4 mph - N/A   Clear
3:15 AM 14.2 °F 0.7 °F 6.6 °F 72% 30.17 in 10.0 mi West 11.5 mph - N/A   Clear
3:35 AM 14.7 °F 0.1 °F 6.4 °F 70% 30.17 in 10.0 mi West 13.8 mph - N/A   Clear
3:55 AM 14.9 °F 1.6 °F 6.8 °F 70% 30.16 in 10.0 mi West 11.5 mph - N/A   Clear
4:15 AM 15.4 °F 1.0 °F 7.3 °F 70% 30.15 in 10.0 mi West 13.8 mph - N/A   Clear
4:35 AM 16.2 °F 1.3 °F 7.7 °F 69% 30.14 in 10.0 mi West 15.0 mph - N/A   Clear
4:55 AM 16.5 °F 3.6 °F 7.7 °F 68% 30.14 in 10.0 mi West 11.5 mph - N/A   Clear
5:15 AM 18.0 °F 6.9 °F 8.2 °F 66% 30.13 in 10.0 mi West 9.2 mph - N/A   Clear
5:35 AM 19.2 °F 5.8 °F 8.6 °F 63% 30.13 in 10.0 mi WSW 13.8 mph - N/A   Clear
5:55 AM 19.2 °F 6.4 °F 8.6 °F 63% 30.13 in 10.0 mi WSW 12.7 mph - N/A   Scattered Clouds
6:15 AM 19.9 °F 7.9 °F 8.6 °F 61% 30.12 in 10.0 mi WSW 11.5 mph 18.4 mph N/A   Mostly Cloudy
6:35 AM 19.9 °F 7.9 °F 9.1 °F 63% 30.12 in 10.0 mi West 11.5 mph - N/A   Mostly Cloudy
6:55 AM 22.8 °F 9.9 °F 10.4 °F 59% 30.11 in 10.0 mi WSW 15.0 mph - N/A   Mostly Cloudy
7:15 AM 22.8 °F 10.4 °F 10.2 °F 59% 30.11 in 10.0 mi West 13.8 mph - N/A   Scattered Clouds
7:35 AM 23.5 °F 13.0 °F 10.4 °F 57% 30.11 in 10.0 mi West 10.4 mph - N/A   Mostly Cloudy
7:55 AM 26.2 °F 18.6 °F 10.9 °F 52% 30.11 in 10.0 mi SW 6.9 mph - N/A   Mostly Cloudy
8:15 AM 26.8 °F 17.7 °F 11.3 °F 52% 30.11 in 10.0 mi West 9.2 mph - N/A   Overcast
8:35 AM 27.9 °F 17.3 °F 11.5 °F 50% 30.11 in 10.0 mi West 12.7 mph - N/A   Overcast
8:55 AM 29.5 °F 20.4 °F 11.5 °F 47% 30.11 in 10.0 mi West 10.4 mph - N/A   Overcast
9:15 AM 34.9 °F 25.3 °F 11.3 °F 38% 30.10 in 10.0 mi WSW 15.0 mph - N/A   Scattered Clouds
9:35 AM 37.9 °F 30.5 °F 10.8 °F 33% 30.10 in 10.0 mi West 11.5 mph - N/A   Clear
9:55 AM 47.5 °F - 12.2 °F 24% 30.10 in 10.0 mi WNW 27.6 mph 40.3 mph N/A   Clear
10:15 AM 47.5 °F - 9.1 °F 21% 30.10 in 10.0 mi WNW 27.6 mph 39.1 mph N/A   Clear
10:35 AM 48.9 °F - 12.0 °F 23% 30.08 in 10.0 mi WNW 27.6 mph 36.8 mph N/A   Clear
10:55 AM 50.7 °F - 14.7 °F 24% 30.07 in 10.0 mi WNW 31.1 mph 38.0 mph N/A   Clear
11:15 AM 51.1 °F - 13.8 °F 23% 30.07 in 10.0 mi WNW 26.5 mph 34.5 mph N/A   Scattered Clouds
11:35 AM 50.5 °F - 14.4 °F 24% 30.05 in 10.0 mi WNW 23.0 mph 35.7 mph N/A   Scattered Clouds
11:55 AM 52.7 °F - 14.7 °F 22% 30.04 in 10.0 mi WNW 27.6 mph 34.5 mph N/A   Clear
12:15 PM 53.6 °F - 13.5 °F 20% 30.03 in 10.0 mi NW 23.0 mph 29.9 mph N/A   Clear
12:35 PM 54.7 °F - 15.1 °F 21% 30.02 in 10.0 mi NW 23.0 mph 27.6 mph N/A   Clear
12:55 PM 55.4 °F - 15.4 °F 21% 30.00 in 10.0 mi WNW 28.8 mph 36.8 mph N/A   Clear
1:15 PM 56.8 °F - 16.2 °F 20% 30.00 in 10.0 mi NW 23.0 mph 32.2 mph N/A   Clear
1:35 PM 56.1 °F - 21.0 °F 26% 29.98 in 10.0 mi NW 24.2 mph 34.5 mph N/A   Scattered Clouds
1:55 PM 55.8 °F - 21.0 °F 26% 29.98 in 10.0 mi WNW 23.0 mph 33.4 mph N/A   Mostly Cloudy
2:15 PM 55.4 °F - 18.7 °F 24% 29.99 in 10.0 mi NW 19.6 mph 29.9 mph N/A   Overcast
2:35 PM 55.8 °F - 23.5 °F 29% 29.98 in 10.0 mi NW 28.8 mph 39.1 mph N/A   Mostly Cloudy
2:55 PM 57.7 °F - 27.7 °F 32% 29.98 in 10.0 mi NW 25.3 mph 32.2 mph N/A   Mostly Cloudy
3:15 PM 57.4 °F - 25.9 °F 30% 29.97 in 10.0 mi NW 28.8 mph 36.8 mph N/A   Overcast
3:35 PM 56.3 °F - 24.3 °F 29% 29.97 in 10.0 mi NNW 25.3 mph 29.9 mph N/A   Overcast
3:55 PM 56.7 °F - 24.6 °F 29% 29.96 in 10.0 mi NW 26.5 mph 32.2 mph N/A   Mostly Cloudy
4:15 PM 55.6 °F - 23.9 °F 29% 29.95 in 10.0 mi NW 19.6 mph 29.9 mph N/A   Clear
4:35 PM 52.7 °F - 20.8 °F 29% 29.95 in 10.0 mi WNW 13.8 mph 18.4 mph N/A   Clear
4:55 PM 52.0 °F - 18.3 °F 27% 29.95 in 10.0 mi West 15.0 mph - N/A   Clear
5:15 PM 51.1 °F - 18.0 °F 27% 29.96 in 10.0 mi West 12.7 mph 19.6 mph N/A   Clear
5:35 PM 49.8 °F - 15.6 °F 26% 29.95 in 10.0 mi WNW 18.4 mph - N/A   Clear
5:55 PM 50.2 °F - 14.7 °F 24% 29.96 in 10.0 mi WNW 20.7 mph 28.8 mph N/A   Clear
6:15 PM 48.4 °F - 14.9 °F 26% 29.96 in 10.0 mi West 17.3 mph - N/A   Clear
6:35 PM 46.8 °F - 15.6 °F 29% 29.96 in 10.0 mi West 13.8 mph - N/A   Clear
6:55 PM 41.5 °F 34.2 °F 14.9 °F 34% 29.96 in 10.0 mi West 13.8 mph - N/A   Clear
7:15 PM 44.1 °F 37.4 °F 15.8 °F 32% 29.97 in 10.0 mi West 13.8 mph - N/A   Clear
7:35 PM 44.1 °F 37.1 °F 16.3 °F 33% 29.97 in 10.0 mi West 15.0 mph - N/A   Clear
7:55 PM 43.5 °F 36.7 °F 16.7 °F 34% 29.97 in 10.0 mi West 13.8 mph - N/A   Clear
8:15 PM 42.3 °F 35.9 °F 16.7 °F 36% 29.98 in 10.0 mi WNW 11.5 mph - N/A   Clear
8:35 PM 42.1 °F 35.2 °F 16.7 °F 36% 29.98 in 10.0 mi WNW 12.7 mph - N/A   Clear
8:55 PM 42.6 °F 35.6 °F 16.7 °F 35% 29.99 in 10.0 mi WNW 13.8 mph - N/A   Clear
9:15 PM 46.2 °F 38.1 °F 19.0 °F 34% 30.00 in 10.0 mi WNW 23.0 mph 29.9 mph N/A   Clear
9:35 PM 45.9 °F 37.4 °F 18.0 °F 33% 30.00 in 10.0 mi WNW 24.2 mph 29.9 mph N/A   Clear
9:55 PM 44.6 °F 36.1 °F 18.1 °F 35% 30.00 in 10.0 mi WNW 21.9 mph - N/A   Clear
10:15 PM 44.2 °F 37.0 °F 19.2 °F 37% 30.02 in 10.0 mi WNW 16.1 mph - N/A   Clear
10:35 PM 45.0 °F 36.2 °F 20.3 °F 38% 30.02 in 10.0 mi WNW 24.2 mph 29.9 mph N/A   Clear
10:55 PM 45.9 °F 37.6 °F 21.0 °F 37% 30.02 in 10.0 mi WNW 23.0 mph 31.1 mph N/A   Clear
11:15 PM 45.0 °F 36.2 °F 21.0 °F 39% 30.03 in 10.0 mi WNW 24.2 mph 29.9 mph N/A   Clear
11:35 PM 44.6 °F 36.4 °F 21.2 °F 39% 30.03 in 10.0 mi WNW 20.7 mph 26.5 mph N/A   Clear
11:55 PM 43.9 °F 35.7 °F 21.2 °F 41% 30.03 in 10.0 mi WNW 19.6 mph - N/A   Clear